| time (UTC) | temp F | wind direction | speed MPH | gust MPH | rain 1hr in | rain 24hr in | rain mn in | humidity % | barometer mb |
| 20260906003516 | 82 | 277 | 7.0 | 9.0 | 0.00 | 0.00 | 0.00 | 37 | 1013.4 |
| 20260906002517 | 82 | 296 | 2.0 | 7.0 | 0.00 | 0.00 | 0.00 | 37 | 1013.4 |
| 20260906001517 | 81 | 284 | 3.0 | 6.0 | 0.00 | 0.00 | 0.00 | 37 | 1013.3 |
| 20260906000517 | 81 | 186 | 6.0 | 9.0 | 0.00 | 0.00 | 0.00 | 37 | 1013.3 |
| 20260905235516 | 81 | 196 | 4.0 | 6.0 | 0.00 | 0.00 | 0.00 | 36 | 1013.5 |
| 20260905234517 | 81 | 244 | 5.0 | 7.0 | 0.00 | 0.00 | 0.00 | 36 | 1013.5 |
| 20260905233537 | 81 | 207 | 3.0 | 6.0 | 0.00 | 0.00 | 0.00 | 36 | 1013.6 |
| 20260905232517 | 81 | 173 | 3.0 | 8.0 | 0.00 | 0.00 | 0.00 | 36 | 1013.5 |
| 20260905231616 | 81 | 127 | 5.0 | 8.0 | 0.00 | 0.00 | 0.00 | 35 | 1013.5 |
| 20260905230517 | 80 | 161 | 5.0 | 7.0 | 0.00 | 0.00 | 0.00 | 35 | 1013.7 |
| 20260905225517 | 81 | 158 | 3.0 | 4.0 | 0.00 | 0.00 | 0.00 | 36 | 1013.9 |
| 20260905224537 | 81 | 158 | 7.0 | 9.0 | 0.00 | 0.00 | 0.00 | 35 | 1014.0 |
| 20260905223516 | 81 | 195 | 3.0 | 10.0 | 0.00 | 0.00 | 0.00 | 36 | 1014.0 |
| 20260905222517 | 81 | 180 | 3.0 | 7.0 | 0.00 | 0.00 | 0.00 | 36 | 1014.0 |
| 20260905221517 | 80 | 151 | 5.0 | 9.0 | 0.00 | 0.00 | 0.00 | 37 | 1014.0 |
| 20260905220517 | 80 | 222 | 2.0 | 7.0 | 0.00 | 0.00 | 0.00 | 37 | 1014.1 |
| 20260905215516 | 80 | 243 | 1.0 | 5.0 | 0.00 | 0.00 | 0.00 | 35 | 1014.3 |
| 20260905214517 | 79 | 213 | 4.0 | 7.0 | 0.00 | 0.00 | 0.00 | 35 | 1014.5 |
| 20260905213517 | 79 | 224 | 5.0 | 7.0 | 0.00 | 0.00 | 0.00 | 33 | 1014.5 |
| 20260905212517 | 79 | 226 | 4.0 | 5.0 | 0.00 | 0.00 | 0.00 | 32 | 1014.5 |
| 20260905211517 | 79 | 199 | 4.0 | 7.0 | 0.00 | 0.00 | 0.00 | 31 | 1014.7 |
| 20260905210515 | 78 | 200 | 3.0 | 8.0 | 0.00 | 0.00 | 0.00 | 32 | 1014.8 |
| 20260905205517 | 77 | 261 | 3.0 | 14.0 | 0.00 | 0.00 | 0.00 | 33 | 1014.8 |
| 20260905204517 | 77 | 187 | 3.0 | 9.0 | 0.00 | 0.00 | 0.00 | 35 | 1014.8 |
| 20260905203517 | 76 | 191 | 4.0 | 6.0 | 0.00 | 0.00 | 0.00 | 37 | 1014.8 |
| 20260905202516 | 76 | 191 | 2.0 | 6.0 | 0.00 | 0.00 | 0.00 | 39 | 1014.9 |
| 20260905201517 | 76 | 238 | 6.0 | 9.0 | 0.00 | 0.00 | 0.00 | 40 | 1014.9 |
| 20260905200537 | 74 | 211 | 4.0 | 8.0 | 0.00 | 0.00 | 0.00 | 41 | 1015.1 |
| 20260905195517 | 73 | 158 | 4.0 | 8.0 | 0.00 | 0.00 | 0.00 | 41 | 1015.1 |
| 20260905194517 | 73 | 181 | 4.0 | 6.0 | 0.00 | 0.00 | 0.00 | 41 | 1015.2 |
| 20260905193517 | 72 | 213 | 3.0 | 7.0 | 0.00 | 0.00 | 0.00 | 41 | 1015.3 |
| 20260905192517 | 72 | 147 | 5.0 | 8.0 | 0.00 | 0.00 | 0.00 | 42 | 1015.4 |
| 20260905191516 | 71 | 198 | 5.0 | 7.0 | 0.00 | 0.00 | 0.00 | 45 | 1015.6 |
| 20260905190517 | 70 | 240 | 2.0 | 4.0 | 0.00 | 0.00 | 0.00 | 48 | 1015.7 |
| 20260905185517 | 70 | 165 | 3.0 | 6.0 | 0.00 | 0.00 | 0.00 | 49 | 1015.8 |
| 20260905184537 | 69 | 226 | 5.0 | 6.0 | 0.00 | 0.00 | 0.00 | 52 | 1015.8 |
| 20260905183516 | 69 | 232 | 3.0 | 7.0 | 0.00 | 0.00 | 0.00 | 52 | 1015.9 |
| 20260905182516 | 69 | 228 | 5.0 | 7.0 | 0.00 | 0.00 | 0.00 | 53 | 1015.8 |
| 20260905181536 | 67 | 149 | 1.0 | 3.0 | 0.00 | 0.00 | 0.00 | 56 | 1015.7 |
| 20260905180537 | 67 | 197 | 2.0 | 4.0 | 0.00 | 0.00 | 0.00 | 56 | 1015.6 |
| 20260905175516 | 67 | 214 | 4.0 | 7.0 | 0.00 | 0.00 | 0.00 | 56 | 1015.7 |
| 20260905174557 | 67 | 190 | 4.0 | 8.0 | 0.00 | 0.00 | 0.00 | 57 | 1015.6 |
| 20260905173517 | 67 | 133 | 3.0 | 5.0 | 0.00 | 0.00 | 0.00 | 57 | 1015.5 |
| 20260905172516 | 68 | 104 | 3.0 | 4.0 | 0.00 | 0.00 | 0.00 | 57 | 1015.5 |
| 20260905171517 | 68 | 138 | 1.0 | 6.0 | 0.00 | 0.00 | 0.00 | 56 | 1015.5 |
| 20260905170516 | 68 | 135 | 1.0 | 3.0 | 0.00 | 0.00 | 0.00 | 56 | 1015.5 |
| 20260905165517 | 68 | 113 | 2.0 | 4.0 | 0.00 | 0.00 | 0.00 | 57 | 1015.4 |
| 20260905164516 | 68 | 125 | 3.0 | 6.0 | 0.00 | 0.00 | 0.00 | 56 | 1015.4 |
| 20260905163517 | 67 | 142 | 2.0 | 5.0 | 0.00 | 0.00 | 0.00 | 56 | 1015.3 |
| 20260905162516 | 66 | 280 | 2.0 | 4.0 | 0.00 | 0.00 | 0.00 | 55 | 1015.2 |
| 20260905161516 | 65 | 70 | 2.0 | 3.0 | 0.00 | 0.00 | 0.00 | 58 | 1015.3 |
| 20260905160515 | 64 | 237 | 1.0 | 3.0 | 0.00 | 0.00 | 0.00 | 60 | 1015.3 |
| 20260905155556 | 64 | 160 | 2.0 | 4.0 | 0.00 | 0.00 | 0.00 | 59 | 1015.3 |
| 20260905154516 | 64 | 164 | 2.0 | 4.0 | 0.00 | 0.00 | 0.00 | 60 | 1015.2 |
| 20260905153536 | 64 | 69 | 1.0 | 2.0 | 0.00 | 0.00 | 0.00 | 62 | 1015.1 |
| 20260905152516 | 63 | 92 | 1.0 | 2.0 | 0.00 | 0.00 | 0.00 | 62 | 1015.1 |
| 20260905151516 | 61 | 22 | 0.0 | 1.0 | 0.00 | 0.00 | 0.00 | 64 | 1015.2 |
| 20260905150516 | 60 | 0.0 | 1.0 | 0.00 | 0.00 | 0.00 | 66 | 1015.0 | |
| 20260905145517 | 58 | 80 | 1.0 | 2.0 | 0.00 | 0.00 | 0.00 | 70 | 1015.1 |
| 20260905144516 | 57 | 0.0 | 2.0 | 0.00 | 0.00 | 0.00 | 73 | 1014.9 | |
| 20260905143517 | 56 | 37 | 1.0 | 3.0 | 0.00 | 0.00 | 0.00 | 75 | 1015.0 |
| 20260905142517 | 55 | 9 | 0.0 | 1.0 | 0.00 | 0.00 | 0.00 | 77 | 1014.8 |
| 20260905141517 | 54 | 59 | 1.0 | 2.0 | 0.00 | 0.00 | 0.00 | 76 | 1014.9 |
| 20260905140537 | 54 | 19 | 0.0 | 1.0 | 0.00 | 0.00 | 0.00 | 75 | 1014.7 |
| 20260905135517 | 54 | 0.0 | 0.0 | 0.00 | 0.00 | 0.00 | 75 | 1014.7 | |
| 20260905134537 | 55 | 19 | 0.0 | 1.0 | 0.00 | 0.01 | 0.00 | 74 | 1014.7 |
| 20260905133536 | 55 | 0.0 | 1.0 | 0.00 | 0.01 | 0.00 | 74 | 1014.7 | |
| 20260905132517 | 55 | 329 | 1.0 | 2.0 | 0.00 | 0.01 | 0.00 | 75 | 1014.7 |
| 20260905131536 | 55 | 24 | 0.0 | 1.0 | 0.00 | 0.01 | 0.00 | 75 | 1014.6 |
| 20260905130517 | 55 | 39 | 1.0 | 1.0 | 0.00 | 0.01 | 0.00 | 74 | 1014.6 |
| 20260905125516 | 55 | 32 | 0.0 | 1.0 | 0.00 | 0.01 | 0.00 | 73 | 1014.7 |
| 20260905124516 | 55 | 32 | 0.0 | 1.0 | 0.00 | 0.01 | 0.00 | 74 | 1014.6 |
| 20260905123536 | 55 | 0.0 | 0.0 | 0.00 | 0.01 | 0.00 | 74 | 1014.7 | |
| 20260905122516 | 55 | 317 | 0.0 | 1.0 | 0.00 | 0.01 | 0.00 | 75 | 1014.8 |
| 20260905121517 | 54 | 55 | 1.0 | 1.0 | 0.00 | 0.01 | 0.00 | 74 | 1014.8 |
| 20260905120516 | 54 | 86 | 0.0 | 1.0 | 0.00 | 0.01 | 0.00 | 73 | 1014.7 |
| 20260905115516 | 55 | 0.0 | 1.0 | 0.00 | 0.01 | 0.00 | 72 | 1014.6 | |
| 20260905114517 | 55 | 85 | 0.0 | 1.0 | 0.00 | 0.01 | 0.00 | 72 | 1014.6 |
| 20260905113516 | 55 | 76 | 1.0 | 2.0 | 0.00 | 0.01 | 0.00 | 71 | 1014.6 |
| 20260905112516 | 56 | 88 | 2.0 | 4.0 | 0.00 | 0.01 | 0.00 | 70 | 1014.7 |
| 20260905111536 | 57 | 90 | 1.0 | 2.0 | 0.00 | 0.01 | 0.00 | 67 | 1014.7 |
| 20260905110517 | 58 | 38 | 1.0 | 2.0 | 0.00 | 0.01 | 0.00 | 66 | 1014.7 |
| 20260905105516 | 58 | 352 | 0.0 | 1.0 | 0.00 | 0.01 | 0.00 | 66 | 1014.8 |
| 20260905104516 | 58 | 82 | 1.0 | 2.0 | 0.00 | 0.01 | 0.00 | 65 | 1014.6 |
| 20260905103516 | 58 | 88 | 2.0 | 3.0 | 0.00 | 0.01 | 0.00 | 64 | 1014.6 |
| 20260905102536 | 59 | 20 | 2.0 | 3.0 | 0.00 | 0.01 | 0.00 | 62 | 1014.8 |
| 20260905101536 | 59 | 3 | 2.0 | 5.0 | 0.00 | 0.01 | 0.00 | 62 | 1014.7 |
| 20260905100516 | 58 | 3 | 3.0 | 6.0 | 0.00 | 0.01 | 0.00 | 64 | 1014.7 |
| 20260905095516 | 58 | 357 | 2.0 | 4.0 | 0.00 | 0.01 | 0.00 | 65 | 1014.8 |
| 20260905094536 | 57 | 2 | 4.0 | 8.0 | 0.00 | 0.01 | 0.00 | 67 | 1014.9 |
| 20260905093516 | 56 | 328 | 1.0 | 2.0 | 0.00 | 0.01 | 0.00 | 69 | 1015.0 |
| 20260905092556 | 55 | 340 | 1.0 | 2.0 | 0.00 | 0.01 | 0.00 | 74 | 1015.0 |
| 20260905091536 | 55 | 0.0 | 1.0 | 0.00 | 0.01 | 0.00 | 78 | 1015.0 | |
| 20260905090516 | 55 | 0.0 | 0.0 | 0.00 | 0.01 | 0.00 | 79 | 1015.1 | |
| 20260905085516 | 55 | 79 | 0.0 | 1.0 | 0.00 | 0.01 | 0.00 | 79 | 1015.2 |
| 20260905084536 | 56 | 79 | 0.0 | 1.0 | 0.00 | 0.01 | 0.00 | 80 | 1015.4 |
| 20260905083536 | 56 | 0.0 | 0.0 | 0.00 | 0.01 | 0.00 | 79 | 1015.4 | |
| 20260905082516 | 56 | 0.0 | 0.0 | 0.00 | 0.01 | 0.00 | 79 | 1015.4 | |
| 20260905081516 | 56 | 0.0 | 0.0 | 0.00 | 0.01 | 0.00 | 78 | 1015.4 | |
| 20260905080516 | 56 | 0.0 | 0.0 | 0.00 | 0.01 | 0.00 | 78 | 1015.4 | |
| 20260905075536 | 57 | 42 | 0.0 | 1.0 | 0.00 | 0.01 | 0.00 | 77 | 1015.4 |
| 20260905074516 | 57 | 0.0 | 0.0 | 0.00 | 0.02 | 0.00 | 77 | 1015.4 | |
| 20260905073516 | 57 | 0.0 | 1.0 | 0.00 | 0.03 | 0.00 | 76 | 1015.4 | |
| 20260905072516 | 57 | 5 | 2.0 | 3.0 | 0.00 | 0.03 | 0.00 | 75 | 1015.4 |
| 20260905071516 | 57 | 0.0 | 0.0 | 0.00 | 0.04 | 0.00 | 74 | 1015.4 | |
| 20260905070516 | 58 | 14 | 1.0 | 2.0 | 0.00 | 0.04 | 0.00 | 72 | 1015.3 |
| 20260905065516 | 58 | 0.0 | 0.0 | 0.00 | 0.05 | 0.05 | 71 | 1015.3 | |
| 20260905064516 | 59 | 0.0 | 0.0 | 0.00 | 0.06 | 0.05 | 69 | 1015.2 | |
| 20260905063516 | 60 | 0.0 | 0.0 | 0.00 | 0.06 | 0.05 | 67 | 1015.2 | |
| 20260905062516 | 60 | 0.0 | 0.0 | 0.00 | 0.06 | 0.05 | 66 | 1015.1 | |
| 20260905061516 | 61 | 83 | 0.0 | 1.0 | 0.00 | 0.06 | 0.05 | 65 | 1015.2 |
| 20260905060516 | 62 | 292 | 0.0 | 2.0 | 0.00 | 0.06 | 0.05 | 64 | 1015.2 |
| 20260905055516 | 62 | 315 | 1.0 | 2.0 | 0.00 | 0.06 | 0.05 | 62 | 1015.3 |
| 20260905054556 | 62 | 323 | 3.0 | 5.0 | 0.00 | 0.06 | 0.05 | 62 | 1015.2 |
| 20260905053516 | 63 | 14 | 1.0 | 3.0 | 0.00 | 0.06 | 0.05 | 62 | 1015.1 |
| 20260905052616 | 63 | 313 | 2.0 | 4.0 | 0.00 | 0.06 | 0.05 | 60 | 1015.1 |
| 20260905051536 | 63 | 326 | 1.0 | 3.0 | 0.00 | 0.06 | 0.05 | 60 | 1015.1 |
| 20260905050516 | 64 | 268 | 1.0 | 3.0 | 0.00 | 0.06 | 0.05 | 58 | 1015.1 |
| 20260905045516 | 64 | 282 | 2.0 | 3.0 | 0.00 | 0.06 | 0.05 | 58 | 1015.0 |
| 20260905044536 | 65 | 119 | 1.0 | 2.0 | 0.00 | 0.06 | 0.05 | 56 | 1015.0 |
| 20260905043536 | 65 | 312 | 5.0 | 10.0 | 0.00 | 0.06 | 0.05 | 56 | 1014.9 |
| 20260905042516 | 65 | 329 | 4.0 | 8.0 | 0.00 | 0.06 | 0.05 | 56 | 1014.8 |
| 20260905041516 | 66 | 319 | 5.0 | 10.0 | 0.00 | 0.06 | 0.05 | 55 | 1014.6 |
| 20260905040516 | 66 | 311 | 4.0 | 10.0 | 0.00 | 0.06 | 0.05 | 54 | 1014.5 |
| 20260905035516 | 67 | 319 | 4.0 | 8.0 | 0.00 | 0.06 | 0.05 | 53 | 1014.4 |
| 20260905034516 | 68 | 327 | 4.0 | 9.0 | 0.00 | 0.06 | 0.05 | 51 | 1014.4 |
| 20260905033535 | 68 | 325 | 4.0 | 9.0 | 0.00 | 0.06 | 0.05 | 49 | 1014.3 |
| 20260905032516 | 69 | 343 | 2.0 | 5.0 | 0.00 | 0.06 | 0.05 | 47 | 1014.1 |
| 20260905031515 | 69 | 324 | 2.0 | 8.0 | 0.00 | 0.06 | 0.05 | 46 | 1014.1 |
| 20260905030516 | 70 | 319 | 1.0 | 4.0 | 0.00 | 0.06 | 0.05 | 47 | 1013.9 |
| 20260905025515 | 71 | 346 | 1.0 | 4.0 | 0.00 | 0.06 | 0.05 | 46 | 1014.0 |
| 20260905024516 | 71 | 355 | 2.0 | 3.0 | 0.00 | 0.06 | 0.05 | 46 | 1013.9 |
| 20260905023516 | 72 | 329 | 3.0 | 5.0 | 0.00 | 0.06 | 0.05 | 46 | 1014.0 |
| 20260905022515 | 73 | 313 | 3.0 | 5.0 | 0.00 | 0.06 | 0.05 | 45 | 1014.0 |
| 20260905021516 | 75 | 327 | 2.0 | 8.0 | 0.00 | 0.06 | 0.05 | 43 | 1014.0 |
| 20260905020516 | 76 | 328 | 1.0 | 3.0 | 0.00 | 0.06 | 0.05 | 44 | 1013.9 |
| 20260905015515 | 76 | 330 | 1.0 | 2.0 | 0.00 | 0.06 | 0.05 | 44 | 1013.8 |
| 20260905014515 | 76 | 352 | 3.0 | 8.0 | 0.00 | 0.06 | 0.05 | 43 | 1013.7 |
| 20260905013515 | 77 | 8 | 2.0 | 4.0 | 0.00 | 0.06 | 0.05 | 43 | 1013.8 |
| 20260905012535 | 77 | 341 | 2.0 | 9.0 | 0.00 | 0.06 | 0.05 | 42 | 1013.8 |
| 20260905011515 | 77 | 302 | 4.0 | 8.0 | 0.00 | 0.06 | 0.05 | 42 | 1013.8 |
| 20260905010516 | 78 | 13 | 5.0 | 8.0 | 0.00 | 0.06 | 0.05 | 41 | 1013.7 |
| 20260905005536 | 77 | 320 | 3.0 | 6.0 | 0.00 | 0.06 | 0.05 | 42 | 1013.7 |
| 20260905004515 | 78 | 255 | 7.0 | 14.0 | 0.00 | 0.06 | 0.05 | 43 | 1013.6 |